Location: Chuathbaluk
(61.5726°N, 159.2454°W)
Time: 05:05:58
(UTC+00:00)

Transit 4A - Pass Details

Date: 01 December 2020
Orbit: 864 x 980 km, 66.8° (Epoch: 26 January)

Event Time Altitude Azimuth Distance (km) Brightness Sun altitude
Rises 03:15:41 0° 312° (NW) 3,693 11.3 -11.2°
Reaches altitude 10° 03:18:36 10° 301° (WNW) 2,735 10.8 -11.5°
Maximum altitude 03:23:53 28° 245° (WSW) 1,723 10.3 -12.1°
Drops below altitude 10° 03:29:05 10° 189° (S) 2,677 10.7 -12.6°
Sets 03:31:55 0° 178° (S) 3,601 11.3 -12.9°
